• Join FlightAware (Why Join?)
  • Login
  • US Flag 
08:02AM EDT


 

Airport Tracker/Info


-or-


 

Live Flight TrackerFlight Track Log ✈ SWA484 ✈ 21-Jun-2013 ✈ KBWI - KROC

Flight Track Log - Related Links

Times and Time Zones

All times are in EDT time to prevent confusion due to time zone crossing. See the SWA484 flight status page for this flight to view local times or setup timezone preferences in your user account.

Time Position Orientation Groundspeed Altitude Reporting Facility
EDT Latitude Longitude Course Direction KTS MPH feet Rate Location/Type
10:09AM 39.1333 -76.6667 303° West 192 221 2,100  Level Potomac TRACON
10:10AM 39.1667 -76.7333 303° West 259 298 4,300 3,000 Climbing Potomac TRACON
10:11AM 39.2000 -76.8167 297° West 281 323 8,100 3,660 Climbing Potomac TRACON
10:12AM 39.2333 -76.9167 293° West 291 335 11,700 2,880 Climbing Potomac TRACON
10:13AM 39.2667 -77.0167 293° West 320 368 13,900 2,160 Climbing Potomac TRACON
10:15AM 39.3803 -77.1678 314° West 356 410 17,600 2,160 Climbing Washington Center
10:16AM 39.4442 -77.2361 320° Northwest 361 415 19,800 2,640 Climbing Washington Center
10:18AM 39.6231 -77.4314 320° Northwest 383 441 25,600 2,040 Climbing New York Center
10:19AM 39.7322 -77.4553 350° North 373 429 26,000 180 Climbing New York Center
10:20AM 39.8472 -77.4528 North 389 448 26,000  Level New York Center
10:21AM 39.9725 -77.4483 North 415 478 26,000  Level New York Center
10:22AM 40.0933 -77.4492 360° North 434 499 26,000  Level New York Center
10:23AM 40.2017 -77.4486 360° North 434 499 26,000  Level New York Center
10:24AM 40.3167 -77.4433 North 424 488 26,000  Level New York Center
10:25AM 40.4317 -77.4408 North 424 488 26,000  Level New York Center
10:26AM 40.5442 -77.4408 360° North 419 482 26,000  Level New York Center
10:27AM 40.6700 -77.4256 North 414 476 26,000  Level New York Center
10:28AM 40.7844 -77.3956 11° North 409 471 26,000 -180 Level New York Center
10:29AM 40.8944 -77.3650 12° North 409 471 25,700 -660 Descending New York Center
10:30AM 41.0044 -77.3344 12° North 409 471 24,700 -1,020 Descending New York Center
10:31AM 41.1144 -77.3039 12° North 404 465 23,700 -1,020 Descending New York Center
10:32AM 41.2244 -77.2731 12° North 404 465 22,700 -1,020 Descending New York Center
10:33AM 41.3325 -77.2447 11° North 394 453 21,700 -840 Descending New York Center
10:34AM 41.4361 -77.2161 12° North 389 448 21,000 -300 Descending New York Center
10:35AM 41.6244 -77.1994 North 384 442 21,000  Level Cleveland Center
10:36AM 41.7289 -77.2081 356° North 379 436 21,000  Level Cleveland Center
10:37AM 41.8314 -77.2139 358° North 379 436 21,000 -420 Level Cleveland Center
10:38AM 41.9336 -77.2194 358° North 374 430 20,200 -900 Descending Cleveland Center
10:39AM 42.0358 -77.2225 359° North 369 425 19,200 -1,020 Descending Cleveland Center
10:40AM 42.1319 -77.2258 359° North 369 425 18,200 -900 Descending Cleveland Center
10:41AM 42.2300 -77.2319 357° North 369 425 17,500 -900 Descending Cleveland Center
10:42AM 42.3303 -77.2378 358° North 364 419 16,500 -960 Descending Cleveland Center
10:43AM 42.4264 -77.2411 359° North 358 412 15,600 -1,080 Descending Cleveland Center
10:44AM 42.4994 -77.2431 359° North 347 399 14,800 -1,140 Descending Cleveland Center
10:45AM 42.5578 -77.2456 358° North 345 397 14,200 -1,440 Descending Cleveland Center
10:45AM 42.6164 -77.2508 356° North 341 392 12,900 -1,860 Descending Cleveland Center
10:46AM 42.6969 -77.3003 336° Northwest 320 368 11,000 -1,500 Descending Cleveland Center
10:47AM 42.7789 -77.3214 349° North 309 356 9,900 -1,080 Descending Cleveland Center
10:48AM 42.8544 -77.3431 348° North 289 333 8,900 -1,020 Descending Cleveland Center
10:49AM 42.9281 -77.3647 348° North 277 319 7,900 -1,020 Descending Cleveland Center
10:50AM 43.0017 -77.3867 348° North 270 311 6,900 -1,020 Descending Cleveland Center
10:51AM 43.0711 -77.4086 347° North 260 299 5,900 -840 Descending Cleveland Center
10:52AM 43.1364 -77.4336 344° North 260 299 5,300 -840 Descending Cleveland Center
10:53AM 43.1550 -77.5067 289° West 202 232 4,300 -1,380 Descending Cleveland Center
10:55AM 43.1556 -77.6092 270° West 178 205 2,100 -1,440 Descending Cleveland Center
10:56AM 43.1403 -77.6611 248° West 136 157 1,000 -1,140 Descending Cleveland Center